Location: Enikep?du
(16.5133°N, 80.7066°E)
Time: 21:48:35
(UTC+00:00)

STARLINK-1057 - Pass Details

Date: 20 January 2020
Orbit: 548 x 551 km, 53.0° (Epoch: 20 February)

Event Time Altitude Azimuth Distance (km) Brightness Sun altitude
Exits shadow 22:50:50 11° 155° (SSE) 1,742 6.6 -32.6°
Drops below altitude 10° 22:55:20 10° 86° (E) 1,811 7.0 -31.5°
Enters shadow 00:08:28 -41° 220° (SW) 9,089 9.7 -14.6°
Maximum altitude 00:32:14 31° 309° (NW) 969 4.4 -9.2°
